Regional Weather Roundup
Issued by NWS

Home | Current Version | Previous Version | Text Only | Print | Product List | Glossary Off
Versions: 1 2 3 4 5 6 7 8 9 10 11 12 13 14 15 16 17 18 19 20 21 22 23 24 25 26 27 28 29 30 31 32 33 34 35 36 37 38 39 40 41 42 43 44 45 46 47 48 49 50

000
ASUS45 KCYS 280510
RWRWY

WYOMING REGIONAL WEATHER ROUNDUP
NATIONAL WEATHER SERVICE CHEYENNE WY
1000 PM MST MON FEB 27 2017

NOTE:  "FAIR" INDICATES FEW OR NO CLOUDS BELOW 12,000 FEET
WITH NO SIGNIFICANT WEATHER AND/OR OBSTRUCTIONS TO VISIBILITY.

WYZ001-280600-
YELLOWSTONE NATIONAL PARK

CITY           SKY/WX    TMP DP  RH WIND       PRES   REMARKS
LK YELLOWSTONE   N/A      5   2  87 CALM      29.61R
W YELLOWSTONE  NOT AVBL

$$
WYZ002>013-054>058-071-098>099-280600-
NORTHERN WYOMING

CITY           SKY/WX    TMP DP  RH WIND       PRES   REMARKS
JACKSON        FAIR      12   7  79 S9        29.70R WCI   0
CODY           FAIR      26   6  42 W17G35    29.59S WCI  13
GREYBULL       CLOUDY    29  20  69 NW18      29.60R WCI  16
WORLAND        CLOUDY    30  21  69 NW10      29.59R WCI  21
SHERIDAN       FAIR      23  18  81 SE9       29.62R WCI  13
BUFFALO        FAIR      23  13  65 NW6       29.57S WCI  16
GILLETTE       FAIR      23  19  85 NW5       29.59S WCI  17
HULETT         FAIR      30  19  64 SE8       29.62S WCI  23
NEWCASTLE      FAIR      28  19  69 SE10      29.65S WCI  19

$$
WYZ014>020-022>026-101>103-280600-
CENTRAL WYOMING

CITY           SKY/WX    TMP DP  RH WIND       PRES   REMARKS
BIG PINEY      FAIR      -4  -8  83 NW5       29.72R WCI -15
PINEDALE       FAIR      -2  -8  78 NW5       29.72R WCI -12
DUBOIS         FAIR      12   1  62 NW12G17   29.60R WCI  -2
LANDER         FAIR      18  -1  43 W14       29.65R WCI   4
RIVERTON       FAIR      18   3  52 W14       29.64R WCI   4
CASPER         MOCLDY    27  18  69 SW23G32   29.61F WCI  12
DOUGLAS        FAIR      25  16  68 W6        29.64F WCI  18

$$
WYZ021-027>030-104>119-280600-
SOUTHERN WYOMING

CITY           SKY/WX    TMP DP  RH WIND       PRES   REMARKS
EVANSTON       FAIR      12   8  84 SW6       29.74R WCI   3
FORT BRIDGER   FAIR      14  14 100 W3        29.77R
ROCK SPRINGS   FAIR      14   8  77 SW14      29.74R WCI  -1
DIXON          LGT SNOW  22  19  89 SW3       29.80R
RAWLINS        CLOUDY    20  12  71 W18       29.69R WCI   5
SARATOGA       CLOUDY    21  14  73 SW13      29.73S WCI   9
LARAMIE        CLOUDY    20  18  92 CALM      29.67S
CHEYENNE       CLOUDY    27  16  63 NW14G22   29.65F WCI  16
TORRINGTON     CLOUDY    28  25  88 CALM      29.67S
PINE BLUFFS    MOCLDY    30  21  69 NW16G24   29.67F WCI  19

$$



USA.gov is the U.S. government's official web portal to all federal, state and local government web resources and services.